Regional Weather Roundup
Issued by NWS

Home | Current Version | Previous Version | Text Only | Print | Product List | Glossary On
Versions: 1 2 3 4 5 6 7 8 9 10 11 12 13 14 15 16 17 18 19 20 21 22 23 24 25 26 27 28 29 30 31 32 33 34 35 36 37 38 39 40 41 42 43 44 45 46 47 48 49 50
000
ASUS43 KOAX 200810
RWRNE

WEATHER ROUNDUP FOR NEBRASKA
NATIONAL WEATHER SERVICE OMAHA NE
200 AM CST SAT DEC 20 2014

NOTES: SATELLITE DATA IS BEING USED TO AUGMENT CLOUD COVER ABOVE
       12000 FEET.
       "FAIR" INDICATES FEW OR NO CLOUDS BELOW 12,000 FEET WITH NO
       SIGNIFICANT WEATHER AND/OR OBSTRUCTIONS TO VISIBILITY.

  * THESE STATIONS DO NOT REPORT WEATHER SUCH AS RAIN...SNOW OR FOG.

NEZ001>004-019>022-054>056-200900-
NEBRASKA PANHANDLE

CITY           SKY/WX    TMP DP  RH WIND       PRES   REMARKS
SCOTTSBLUFF    PTCLDY    13  10  88 NE6       29.97F WCI   4
ALLIANCE       PTCLDY    13  11  92 CALM      29.96F
CHADRON        CLEAR     14  10  84 SW6       29.96S WCI   5
KIMBALL        PTCLDY    21  17  83 W3        29.97S
SIDNEY         PTCLDY    18  13  80 W7        29.99F WCI   9
$$

NEZ057>060-069>072-079>082-200900-
SOUTHWEST NEBRASKA

CITY           SKY/WX    TMP DP  RH WIND       PRES   REMARKS
NORTH PLATTE   CLEAR     19  17  92 NW5       30.02S FOG     WCI  12
IMPERIAL       PTCLDY    27  19  72 W7        30.02S WCI  19
LEXINGTON      CLEAR     22  20  94 NW7       30.02F FOG     WCI  13
MCCOOK         CLEAR     25  22  88 W7        30.03F WCI  17
OGALLALA       PTCLDY    16  15  95 W8        30.02S FOG     WCI   5
$$

NEZ005>010-023>029-035>040-094-200900-
NORTH CENTRAL NEBRASKA

CITY           SKY/WX    TMP DP  RH WIND       PRES   REMARKS
VALENTINE      CLEAR     14  12  92 SW7       29.98S WCI   4
AINSWORTH      CLEAR     20  17  88 W8        29.97S WCI  10
BROKEN BOW     CLEAR     24  20  84 SW5       30.00S WCI  18
O`NEILL        FOG       25  25  99 S3        30.01S VSB 1/4
THEDFORD       CLEAR     22  19  89 W3        30.00S
$$

NEZ041-046>049-061>064-073>077-083>087-200900-
SOUTH CENTRAL NEBRASKA

CITY           SKY/WX    TMP DP  RH WIND       PRES   REMARKS
GRAND ISLAND   CLOUDY    32  31  96 SW3       30.05R FOG
AURORA         FOG       32  32 100 S3        30.05S VSB 3/4
HASTINGS       FOG       29  28  96 SW3       30.03S VSB 1/4
HEBRON         FOG       32  31  95 S8        30.06F VSB 1/2 WCI  25
HOLDREGE       CLEAR     28  25  87 W7        30.02S WCI  21
KEARNEY *      CLEAR     19  18  93 CALM      30.02S
YORK           FOG       32  32 100 CALM      30.06S VSB 3/4
$$

NEZ011>018-030>034-042>045-200900-
NORTHEAST NEBRASKA

CITY           SKY/WX    TMP DP  RH WIND       PRES   REMARKS
NORFOLK        CLOUDY    33  32  96 S7        30.05S FOG     WCI  27
ALBION         CLOUDY    33  31  93 SW5       30.03F FOG     WCI  28
BLAIR          CLOUDY    32  30  94 SE8       30.10S FOG     WCI  25
COLUMBUS *     CLOUDY    32  28  86 S7        30.08S WCI  26
FREMONT        CLOUDY    32  32  99 SE6       30.10F FOG     WCI  27
TEKAMAH        CLOUDY    32  30  92 SE12      30.11F FOG     WCI  23
WAYNE          CLOUDY    33  31  94 S8        30.07S FOG     WCI  26
$$

NEZ050>053-065>068-078-088>093-200900-
SOUTHEAST NEBRASKA

CITY           SKY/WX    TMP DP  RH WIND       PRES   REMARKS
LINCOLN        CLOUDY    33  30  88 SE8       30.10F WCI  26
OMAHA EPPLEY   FRZ DRZL  31  30  96 S13       30.14S FOG     WCI  21
BEATRICE       CLOUDY    32  31  95 S8        30.08F WCI  25
FALLS CITY     CLOUDY    31  28  89 SE10      30.15F WCI  22
NEBRASKA CITY  CLOUDY    31  31 100 SE8       30.13S FOG     WCI  23
PLATTSMOUTH    CLOUDY    30  28  93 SE10      30.12F FOG     WCI  21
$$

NEZ044-045-051>053-067-200900-
OMAHA AREA

CITY           SKY/WX    TMP DP  RH WIND       PRES   REMARKS
OMAHA EPPLEY   FRZ DRZL  31  30  96 S13       30.14S FOG     WCI  21
BLAIR          CLOUDY    32  30  94 SE8       30.10S FOG     WCI  25
FREMONT        CLOUDY    32  32  99 SE6       30.10F FOG     WCI  27
MILLARD        CLOUDY    32  30  94 SE9       30.12S FOG     WCI  24
OFFUTT AFB     CLOUDY    31  29  96 SE9       30.12F FOG     WCI  22
PLATTSMOUTH    CLOUDY    30  28  93 SE10      30.12F FOG     WCI  21
WAHOO          CLOUDY    32  30  93 S10       30.10S FOG     WCI  24
$$


USA.gov is the U.S. government's official web portal to all federal, state and local government web resources and services.